Time,TemperatureF,DewpointF,PressureIn,WindDirection,WindDirectionDegrees,WindSpeedMPH,WindSpeedGustMPH,Humidity,HourlyPrecipIn,Conditions,Clouds,dailyrainin,SoftwareType,DateUTC
2013-01-19 00:04:00,57.0,56.0,30.26,NE,38,4.0,6.0,97,99.99,,,-99.99,,2013-01-19 05:04:00,
2013-01-19 00:12:00,57.0,56.0,30.26,NE,38,4.0,6.0,97,99.99,,,-99.99,,2013-01-19 05:12:00,
2013-01-19 00:23:00,56.0,55.0,30.25,NE,44,5.0,8.0,97,99.99,,,-99.99,,2013-01-19 05:23:00,
2013-01-19 00:33:00,56.0,55.0,30.25,North,11,6.0,9.0,97,99.99,,,-99.99,,2013-01-19 05:33:00,
2013-01-19 00:43:00,56.0,55.0,30.25,North,11,6.0,9.0,97,99.99,,,-99.99,,2013-01-19 05:43:00,
2013-01-19 00:53:00,56.0,55.0,30.24,NNE,17,6.0,10.0,97,99.99,,,-99.99,,2013-01-19 05:53:00,
2013-01-19 01:03:00,56.0,55.0,30.25,NE,41,5.0,8.0,97,99.99,,,-99.99,,2013-01-19 06:03:00,
2013-01-19 01:12:00,56.0,55.0,30.25,NE,41,5.0,8.0,97,99.99,,,-99.99,,2013-01-19 06:12:00,
2013-01-19 01:22:00,56.0,55.0,30.25,NNE,23,5.0,9.0,97,99.99,,,-99.99,,2013-01-19 06:22:00,
2013-01-19 01:32:00,56.0,55.0,30.24,NNW,343,5.0,8.0,97,99.99,,,-99.99,,2013-01-19 06:32:00,
2013-01-19 01:43:00,56.0,55.0,30.24,NNW,343,5.0,8.0,97,99.99,,,-99.99,,2013-01-19 06:43:00,
2013-01-19 01:53:00,56.0,55.0,30.24,NNE,20,6.0,10.0,97,99.99,,,-99.99,,2013-01-19 06:53:00,
2013-01-19 02:02:00,56.0,55.0,30.24,NE,45,5.0,8.0,98,99.99,,,-99.99,,2013-01-19 07:02:00,
2013-01-19 02:12:00,56.0,55.0,30.24,NE,45,5.0,8.0,98,99.99,,,-99.99,,2013-01-19 07:12:00,
2013-01-19 02:22:00,56.0,55.0,30.24,NNE,21,5.0,8.0,98,99.99,,,-99.99,,2013-01-19 07:22:00,
2013-01-19 02:33:00,55.0,54.0,30.23,NNE,20,5.0,8.0,98,99.99,,,-99.99,,2013-01-19 07:33:00,
2013-01-19 02:43:00,55.0,54.0,30.23,NNE,20,5.0,8.0,98,99.99,,,-99.99,,2013-01-19 07:43:00,
2013-01-19 02:53:00,56.0,55.0,30.23,NNE,13,5.0,9.0,98,99.99,,,-99.99,,2013-01-19 07:53:00,
2013-01-19 03:02:00,55.0,54.0,30.23,NNE,23,5.0,8.0,98,99.99,,,-99.99,,2013-01-19 08:02:00,
2013-01-19 03:12:00,55.0,54.0,30.23,NNE,23,5.0,8.0,98,99.99,,,-99.99,,2013-01-19 08:12:00,
2013-01-19 03:22:00,55.0,54.0,30.23,North,4,4.0,7.0,98,99.99,,,-99.99,,2013-01-19 08:22:00,
2013-01-19 03:32:00,55.0,55.0,30.22,NNE,21,5.0,8.0,99,99.99,,,-99.99,,2013-01-19 08:32:00,
2013-01-19 03:43:00,55.0,55.0,30.22,NNE,21,5.0,8.0,99,99.99,,,-99.99,,2013-01-19 08:43:00,
2013-01-19 03:53:00,56.0,56.0,30.22,North,359,4.0,7.0,99,99.99,,,-99.99,,2013-01-19 08:53:00,
2013-01-19 04:02:00,55.0,55.0,30.23,NE,41,4.0,7.0,99,99.99,,,-99.99,,2013-01-19 09:02:00,
2013-01-19 04:12:00,55.0,55.0,30.23,NE,41,4.0,7.0,99,99.99,,,-99.99,,2013-01-19 09:12:00,
2013-01-19 04:23:00,56.0,56.0,30.23,NNE,21,5.0,8.0,100,99.99,,,-99.99,,2013-01-19 09:23:00,
2013-01-19 04:33:00,56.0,56.0,30.22,NNE,23,4.0,9.0,100,99.99,,,-99.99,,2013-01-19 09:33:00,
2013-01-19 04:42:00,56.0,56.0,30.22,NNE,23,4.0,9.0,100,99.99,,,-99.99,,2013-01-19 09:42:00,
2013-01-19 04:53:00,55.0,55.0,30.22,NNE,32,5.0,8.0,100,99.99,,,-99.99,,2013-01-19 09:53:00,
2013-01-19 05:02:00,55.0,55.0,30.22,NNE,27,5.0,7.0,100,99.99,,,-99.99,,2013-01-19 10:02:00,
2013-01-19 05:12:00,56.0,56.0,30.23,NNE,20,5.0,9.0,100,99.99,,,-99.99,,2013-01-19 10:12:00,
2013-01-19 05:22:00,56.0,56.0,30.23,NNE,20,5.0,9.0,100,99.99,,,-99.99,,2013-01-19 10:22:00,
2013-01-19 05:32:00,56.0,56.0,30.22,NE,38,6.0,8.0,100,99.99,,,-99.99,,2013-01-19 10:32:00,
2013-01-19 05:43:00,56.0,56.0,30.22,NE,38,6.0,8.0,100,99.99,,,-99.99,,2013-01-19 10:43:00,
2013-01-19 05:53:00,56.0,56.0,30.23,NNE,32,3.0,6.0,100,99.99,,,-99.99,,2013-01-19 10:53:00,
2013-01-19 06:03:00,56.0,56.0,30.23,NNE,30,4.0,6.0,100,99.99,,,-99.99,,2013-01-19 11:03:00,
2013-01-19 06:12:00,56.0,56.0,30.23,NNE,30,4.0,6.0,100,99.99,,,-99.99,,2013-01-19 11:12:00,
2013-01-19 07:48:00,57.0,57.0,30.25,North,0,0.0,0.0,100,99.99,,,-99.99,,2013-01-19 12:48:00,
2013-01-19 07:53:00,57.0,57.0,30.25,NNE,31,2.0,4.0,100,99.99,,,-99.99,,2013-01-19 12:53:00,
2013-01-19 08:03:00,57.0,57.0,30.25,NNE,28,4.0,8.0,100,99.99,,,-99.99,,2013-01-19 13:03:00,
2013-01-19 08:12:00,57.0,57.0,30.25,NNE,28,4.0,8.0,100,99.99,,,-99.99,,2013-01-19 13:12:00,
2013-01-19 08:22:00,57.0,57.0,30.25,NE,45,6.0,8.0,100,99.99,,,-99.99,,2013-01-19 13:22:00,
2013-01-19 08:33:00,58.0,58.0,30.25,NNE,24,5.0,9.0,100,99.99,,,-99.99,,2013-01-19 13:33:00,
2013-01-19 08:43:00,58.0,58.0,30.25,NNE,24,5.0,9.0,100,99.99,,,-99.99,,2013-01-19 13:43:00,
2013-01-19 08:53:00,58.0,58.0,30.25,NNE,24,4.0,8.0,100,99.99,,,-99.99,,2013-01-19 13:53:00,
2013-01-19 09:03:00,59.0,59.0,30.26,North,1,5.0,10.0,100,99.99,,,-99.99,,2013-01-19 14:03:00,
2013-01-19 09:12:00,59.0,59.0,30.26,North,1,5.0,10.0,100,99.99,,,-99.99,,2013-01-19 14:12:00,
2013-01-19 09:23:00,60.0,59.0,30.26,NNE,14,6.0,10.0,98,99.99,,,-99.99,,2013-01-19 14:23:00,
2013-01-19 09:34:00,62.0,61.0,30.26,ENE,63,4.0,9.0,97,99.99,,,-99.99,,2013-01-19 14:34:00,
2013-01-19 09:43:00,62.0,61.0,30.26,ENE,63,4.0,9.0,97,99.99,,,-99.99,,2013-01-19 14:43:00,
2013-01-19 09:53:00,63.0,61.0,30.27,NNE,25,6.0,12.0,94,99.99,,,-99.99,,2013-01-19 14:53:00,
2013-01-19 10:03:00,64.0,61.0,30.27,East,82,6.0,10.0,90,99.99,,,-99.99,,2013-01-19 15:03:00,
2013-01-19 10:13:00,64.0,61.0,30.27,East,82,6.0,10.0,90,99.99,,,-99.99,,2013-01-19 15:13:00,
2013-01-19 10:23:00,66.0,61.0,30.27,NE,53,7.0,12.0,84,99.99,,,-99.99,,2013-01-19 15:23:00,
2013-01-19 10:33:00,67.0,62.0,30.28,ENE,65,7.0,13.0,83,99.99,,,-99.99,,2013-01-19 15:33:00,
2013-01-19 10:43:00,67.0,62.0,30.28,ENE,65,7.0,13.0,83,99.99,,,-99.99,,2013-01-19 15:43:00,
2013-01-19 10:53:00,66.0,60.0,30.27,ENE,68,9.0,14.0,82,99.99,,,-99.99,,2013-01-19 15:53:00,
2013-01-19 11:03:00,67.0,61.0,30.27,ENE,58,7.0,10.0,82,99.99,,,-99.99,,2013-01-19 16:03:00,
2013-01-19 11:13:00,67.0,61.0,30.27,ENE,58,7.0,10.0,82,99.99,,,-99.99,,2013-01-19 16:13:00,
2013-01-19 11:23:00,67.0,61.0,30.27,NE,56,6.0,10.0,80,99.99,,,-99.99,,2013-01-19 16:23:00,
2013-01-19 11:33:00,68.0,62.0,30.26,ESE,104,7.0,12.0,80,99.99,,,-99.99,,2013-01-19 16:33:00,
2013-01-19 11:43:00,68.0,62.0,30.26,ESE,104,7.0,12.0,80,99.99,,,-99.99,,2013-01-19 16:43:00,
2013-01-19 11:54:00,69.0,61.0,30.25,ENE,72,10.0,18.0,76,99.99,,,-99.99,,2013-01-19 16:54:00,
2013-01-19 12:03:00,70.0,62.0,30.24,NE,56,10.0,17.0,76,99.99,,,-99.99,,2013-01-19 17:03:00,
2013-01-19 12:20:00,70.0,62.0,30.24,NE,56,10.0,17.0,76,99.99,,,-99.99,,2013-01-19 17:20:00,
2013-01-19 12:29:00,70.0,61.0,30.23,ENE,59,8.0,17.0,74,99.99,,,-99.99,,2013-01-19 17:29:00,
2013-01-19 12:35:00,71.0,62.0,30.23,ENE,69,7.0,14.0,74,99.99,,,-99.99,,2013-01-19 17:35:00,
2013-01-19 12:48:00,71.0,62.0,30.23,ENE,69,7.0,14.0,74,99.99,,,-99.99,,2013-01-19 17:48:00,
2013-01-19 12:55:00,71.0,62.0,30.22,ESE,117,9.0,15.0,72,99.99,,,-99.99,,2013-01-19 17:55:00,
2013-01-19 13:12:00,72.0,61.0,30.20,East,93,8.0,14.0,69,99.99,,,-99.99,,2013-01-19 18:12:00,
2013-01-19 13:27:00,72.0,61.0,30.19,East,79,8.0,15.0,69,99.99,,,-99.99,,2013-01-19 18:27:00,
2013-01-19 13:35:00,73.0,62.0,30.18,ENE,68,8.0,13.0,68,99.99,,,-99.99,,2013-01-19 18:35:00,
2013-01-19 13:45:00,73.0,62.0,30.18,ENE,68,8.0,13.0,68,99.99,,,-99.99,,2013-01-19 18:45:00,
2013-01-19 14:02:00,73.0,61.0,30.17,East,98,8.0,17.0,67,99.99,,,-99.99,,2013-01-19 19:02:00,
2013-01-19 14:09:00,73.0,61.0,30.16,ESE,111,7.0,13.0,67,99.99,,,-99.99,,2013-01-19 19:09:00,
2013-01-19 14:20:00,73.0,61.0,30.16,ESE,111,7.0,13.0,67,99.99,,,-99.99,,2013-01-19 19:20:00,
2013-01-19 14:30:00,73.0,61.0,30.16,ENE,63,9.0,15.0,66,99.99,,,-99.99,,2013-01-19 19:30:00,
2013-01-19 14:39:00,73.0,61.0,30.15,ESE,105,9.0,17.0,66,99.99,,,-99.99,,2013-01-19 19:39:00,
2013-01-19 14:47:00,73.0,61.0,30.15,ESE,105,9.0,17.0,66,99.99,,,-99.99,,2013-01-19 19:47:00,
2013-01-19 14:58:00,72.0,61.0,30.14,ENE,69,8.0,14.0,68,99.99,,,-99.99,,2013-01-19 19:58:00,
2013-01-19 15:20:00,72.0,-99.9,30.14,NE,51,7.0,12.0,-999,99.99,,,-99.99,,2013-01-19 20:20:00,
2013-01-19 15:25:00,73.0,61.0,30.14,East,79,8.0,15.0,67,99.99,,,-99.99,,2013-01-19 20:25:00,
2013-01-19 15:48:00,72.0,61.0,30.14,ESE,117,7.0,12.0,68,99.99,,,-99.99,,2013-01-19 20:48:00,
2013-01-19 16:14:00,72.0,61.0,30.13,ENE,68,8.0,12.0,68,99.99,,,-99.99,,2013-01-19 21:14:00,
2013-01-19 16:26:00,72.0,61.0,30.14,ESE,104,7.0,13.0,69,99.99,,,-99.99,,2013-01-19 21:26:00,
2013-01-19 16:50:00,72.0,62.0,30.14,ENE,63,6.0,10.0,70,99.99,,,-99.99,,2013-01-19 21:50:00,
2013-01-19 17:00:00,71.0,61.0,30.14,ENE,65,5.0,9.0,71,99.99,,,-99.99,,2013-01-19 22:00:00,
2013-01-19 17:14:00,71.0,62.0,30.14,ENE,68,6.0,9.0,72,99.99,,,-99.99,,2013-01-19 22:14:00,
2013-01-19 17:27:00,71.0,62.0,30.14,ENE,60,5.0,8.0,74,99.99,,,-99.99,,2013-01-19 22:27:00,
2013-01-19 17:35:00,71.0,63.0,30.14,ENE,70,6.0,11.0,75,99.99,,,-99.99,,2013-01-19 22:35:00,
2013-01-19 17:47:00,71.0,63.0,30.14,ENE,70,6.0,11.0,75,99.99,,,-99.99,,2013-01-19 22:47:00,
2013-01-19 17:58:00,70.0,62.0,30.14,ENE,68,5.0,8.0,76,99.99,,,-99.99,,2013-01-19 22:58:00,
2013-01-19 18:13:00,70.0,61.0,30.15,East,101,7.0,11.0,74,99.99,,,-99.99,,2013-01-19 23:13:00,
2013-01-19 18:25:00,70.0,62.0,30.15,ESE,107,5.0,9.0,75,99.99,,,-99.99,,2013-01-19 23:25:00,
2013-01-19 18:34:00,70.0,62.0,30.16,SE,127,4.0,8.0,76,99.99,,,-99.99,,2013-01-19 23:34:00,
2013-01-19 18:45:00,70.0,62.0,30.16,SE,127,4.0,8.0,76,99.99,,,-99.99,,2013-01-19 23:45:00,
2013-01-19 19:07:00,70.0,63.0,30.16,ENE,70,6.0,8.0,78,99.99,,,-99.99,,2013-01-20 00:07:00,
2013-01-19 19:15:00,69.0,63.0,30.16,ENE,58,7.0,12.0,80,99.99,,,-99.99,,2013-01-20 00:15:00,
2013-01-19 19:35:00,68.0,62.0,30.16,NE,55,6.0,9.0,82,99.99,,,-99.99,,2013-01-20 00:35:00,
2013-01-19 19:46:00,68.0,62.0,30.16,NE,55,6.0,9.0,82,99.99,,,-99.99,,2013-01-20 00:46:00,
2013-01-19 19:57:00,68.0,63.0,30.17,East,86,5.0,9.0,84,99.99,,,-99.99,,2013-01-20 00:57:00,
2013-01-19 20:04:00,67.0,63.0,30.17,East,86,4.0,7.0,86,99.99,,,-99.99,,2013-01-20 01:04:00,
2013-01-19 20:27:00,67.0,63.0,30.18,ESE,113,4.0,7.0,87,99.99,,,-99.99,,2013-01-20 01:27:00,
2013-01-19 20:39:00,68.0,-99.9,30.18,ESE,114,3.0,6.0,-999,99.99,,,-99.99,,2013-01-20 01:39:00,
2013-01-19 20:53:00,68.0,-99.9,30.18,ESE,114,3.0,6.0,-999,99.99,,,-99.99,,2013-01-20 01:53:00,
2013-01-19 21:04:00,67.0,65.0,30.18,ESE,104,4.0,6.0,92,99.99,,,-99.99,,2013-01-20 02:04:00,
2013-01-19 21:27:00,66.0,64.0,30.17,ENE,62,4.0,7.0,94,99.99,,,-99.99,,2013-01-20 02:27:00,
2013-01-19 21:35:00,66.0,65.0,30.17,SE,125,4.0,7.0,95,99.99,,,-99.99,,2013-01-20 02:35:00,
2013-01-19 21:44:00,66.0,65.0,30.17,SE,125,4.0,7.0,95,99.99,,,-99.99,,2013-01-20 02:44:00,
2013-01-19 21:59:00,66.0,65.0,30.17,ESE,110,4.0,7.0,95,99.99,,,-99.99,,2013-01-20 02:59:00,
2013-01-19 22:08:00,66.0,65.0,30.16,East,90,4.0,7.0,96,99.99,,,-99.99,,2013-01-20 03:08:00,
2013-01-19 22:15:00,66.0,65.0,30.16,East,90,4.0,7.0,96,99.99,,,-99.99,,2013-01-20 03:15:00,
2013-01-19 22:25:00,66.0,65.0,30.16,East,93,4.0,7.0,96,99.99,,,-99.99,,2013-01-20 03:25:00,
2013-01-19 22:38:00,66.0,65.0,30.16,ESE,105,4.0,7.0,97,99.99,,,-99.99,,2013-01-20 03:38:00,
2013-01-19 22:45:00,66.0,65.0,30.16,ESE,105,4.0,7.0,97,99.99,,,-99.99,,2013-01-20 03:45:00,
2013-01-19 22:58:00,66.0,65.0,30.16,ENE,60,4.0,7.0,98,99.99,,,-99.99,,2013-01-20 03:58:00,
2013-01-19 23:05:00,65.0,64.0,30.16,ENE,66,4.0,6.0,98,99.99,,,-99.99,,2013-01-20 04:05:00,
2013-01-19 23:15:00,65.0,64.0,30.16,ENE,66,4.0,6.0,98,99.99,,,-99.99,,2013-01-20 04:15:00,
2013-01-19 23:26:00,65.0,64.0,30.14,ENE,77,4.0,6.0,98,99.99,,,-99.99,,2013-01-20 04:26:00,
2013-01-19 23:35:00,65.0,65.0,30.16,NE,48,3.0,4.0,99,99.99,,,-99.99,,2013-01-20 04:35:00,
2013-01-19 23:44:00,65.0,65.0,30.16,NE,48,3.0,4.0,99,99.99,,,-99.99,,2013-01-20 04:44:00,
2013-01-19 23:58:00,65.0,64.0,30.15,ENE,70,4.0,7.0,98,99.99,,,-99.99,,2013-01-20 04:58:00,